Regional Weather Roundup
Issued by NWS Sterling, VA

Home | Current Version | Previous Version | Text Only | Print | Product List | Glossary Off
Versions: 1 2 3 4 5 6 7 8 9 10 11 12 13 14 15 16 17 18 19 20 21 22 23 24 25 26 27 28 29 30 31 32 33 34 35 36 37 38 39 40 41 42 43 44 45 46 47 48 49 50

000
ASUS41 KLWX 020610
RWRLWX

REGIONAL WEATHER ROUNDUP
NATIONAL WEATHER SERVICE BALTIMORE MD/WASHINGTON DC
200 AM EDT TUE JUN 02 2015

Note: "FAIR" indicates few or no clouds below 12,000 feet
with no significant weather and/or obstructions to visibility.
 TC=TEMPERATURE CELSIUS

 * =Non NWS site. Station does not report precipitation (e.g. rain,
    snow, etc.), thunder, or fog.

DCZ001-MDZ009-015-VAZ040>042-051-053>054-020700-
WASHINGTON METRO

CITY           SKY/WX    TMP DP  RH WIND       PRES   REMARKS
WASHINGTON NAT TSTM      72  70  94 NE13      29.99F
DULLES         LGT RAIN  68  67  96 NE7       29.99F
ANDREWS AFB    RAIN      68  68 100 E6        29.99F FOG
FT BELVOIR     RAIN      69  67  94 SE8       29.98F
QUANTICO       CLOUDY    69  66  90 S6        29.99F
COLLEGE PARK*  CLOUDY    70  70 100 E3        30.01F
LEESBURG*      LGT RAIN  70  70 100 NE5       30.01F
MANASSAS*      CLOUDY   N/A N/A N/A N5        29.98F
GAITHERSBURG*  CLOUDY    66  64  94 NE5       30.06F

$$

MDZ006>007-011-014-020700-
BALTIMORE METRO

CITY           SKY/WX    TMP DP  RH WIND       PRES   REMARKS
BWI AIRPORT    LGT RAIN  67  65  93 NE7       30.02S FOG
MD SCIENCE CTR   N/A     65  63  93 MISG      30.04S
MARTIN STATE   RAIN      64  64 100 NW3       30.05S
ANNAPOLIS      LGT RAIN  70  50  49 SE13      30.02S
FORT MEADE*    CLOUDY    68  64  88 SE3       30.04F

$$

MDZ012-015-019>023-020700-
MARYLAND EASTERN SHORE

CITY           SKY/WX    TMP DP  RH WIND       PRES   REMARKS
OCEAN CITY     CLOUDY    68  66  93 NW5       30.03F
SALISBURY      LGT RAIN  67  67 100 CALM      30.02F FOG
BAY BRIDGE AP* LGT RAIN N/A N/A N/A SE6       30.03R
CAMBRIDGE*     CLOUDY    70  66  88 SE3       30.01F
EASTON*        LGT RAIN  70  70 100 CALM      30.06S

$$

MDZ017>025-020700-
SOUTHERN MARYLAND

CITY           SKY/WX    TMP DP  RH WIND       PRES   REMARKS
PATUXENT RIVER LGT RAIN  68  67  96 E5        30.00F
ST INIGOES     LGT RAIN  69  68  96 E3        30.00F
LEONARDTOWN*   CLOUDY    66  64  94 E3        30.01F

$$

MDZ003>005-020700-
NORTH CENTRAL MARYLAND

CITY           SKY/WX    TMP DP  RH WIND       PRES   REMARKS
FREDERICK*     RAIN      63  63 100 N8        30.05F
HAGERSTOWN APT LGT RAIN  65  62  90 NE8       30.04F FOG
WESTMINSTER*   RAIN      61  59  94 NE6       30.06R

$$

MDZ501>502-020700-
WESTERN MARYLAND

CITY           SKY/WX    TMP DP  RH WIND       PRES   REMARKS
OAKLAND*       FOG       50 N/A N/A CALM      30.09S VSB 1/4
CUMBERLAND*    CLOUDY    61  55  82 CALM      30.10F

$$

VAZ025>031-020700-
SHENANDOAH VALLEY

CITY           SKY/WX    TMP DP  RH WIND       PRES   REMARKS
WINCHESTER*    CLOUDY    63  61  94 NW6       30.03F FOG
FRONT ROYAL*   CLOUDY    63  61  94 N3        30.03S
LURAY*         CLOUDY    64  64 100 N10       30.02S
NEW MARKET*    CLOUDY    63  61  93 N9        30.01S
STAUNTON*      CLOUDY    68  66  91 E3        30.04F
WAYNESBORO*    CLOUDY    65  64  98 CALM      30.04S

$$

WVZ021-048>050-054>055-020700-
EASTERN WEST VIRGINIA PANHANDLE

CITY           SKY/WX    TMP DP  RH WIND       PRES   REMARKS
MARTINSBURG    LGT RAIN  62  59  90 N5        30.04F
PETERSBURG*    HVY RAIN  59  56  91 CALM      30.07S

$$

VAZ036>039-050-020700-
CENTRAL FOOTHILLS

CITY           SKY/WX    TMP DP  RH WIND       PRES   REMARKS
CHARLOTTESVILL CLOUDY    66  64  93 CALM      30.02R
CULPEPER*      CLOUDY    66  65  99 CALM      30.00S
ORANGE*        CLOUDY    66  64  94 CALM      30.03R
GORDONSVILLE*  MOCLDY    64  64 100 CALM      30.01S
WARRENTON*     RAIN      68  68 100 NE3       29.98F

$$

VAZ055>057-020700-
NORTH AND CENTRAL PIEDMONT

CITY           SKY/WX    TMP DP  RH WIND       PRES   REMARKS
FREDERICKSBRG* CLOUDY    70  70 100 CALM      29.99S
STAFFORD*      CLOUDY    65  64  95 CALM      30.03R

$$

NCZ024-NYZ072-PAZ021-071-VAZ022-071-020700-
OTHER REGIONAL OBSERVATIONS

CITY           SKY/WX    TMP DP  RH WIND       PRES   REMARKS
NEW YORK CITY  LGT RAIN  51  48  89 NE9       30.16F
PHILADELPHIA   LGT RAIN  57  54  89 E9        30.09R
PITTSBURGH     CLOUDY    54  49  83 N8        30.11F
ROANOKE        MOCLDY    66  64  93 W3        30.04S
RICHMOND       CLOUDY    69  67  93 SE3       30.01F
RALEIGH        MOCLDY    69  67  93 CALM      30.02F

$$

ANZ530>537-020700-
MARINE OBSERVATIONS

STATION/POSITION TIME  TEMP    WIND        PRES
                       AIR SEA DIR/SP/G
                 (UTC) (F)     (DEG/KT/KT) (MB)
THOMAS PT LIGHT  0600   69 73  170/ 11/ 13 1017.5R
BALT KEY BRIDGE  0500   67      60/ 11/ 13 1016.5F
COVE POINT       0500   68     200/  8/ 12 1018.2R
LEWISETTA        0500   68 74              1016.6F
SOLOMONS ISLAND  0500      73                N/A
PINEY POINT      0500          250/  1/  2   N/A

$$



USA.gov is the U.S. government's official web portal to all federal, state and local government web resources and services.